Columbia, MO

4:55 AM CDT on September 24, 2017 (GMT -0500)
Columbia Regional

Weather History for KCOU - March, 2012

Change the Weather History Date:

Monday, March 26, 2012

  Actual Average Record
Temperature  
Mean Temperature 66 °F 48 °F  
Max Temperature 77 °F 59 °F 86 °F (1910)
Min Temperature 54 °F 37 °F 4 °F (1955)
Degree Days  
Heating Degree Days 0 17  
Month to date heating degree days 206 555  
Since 1 July heating degree days 3549 4501  
Cooling Degree Days 1 0  
Month to date cooling degree days 31 0  
Year to date cooling degree days 31 0  
Growing Degree Days 15 (Base 50)    
Moisture  
Dew Point 54 °F    
Average Humidity 66    
Maximum Humidity 86    
Minimum Humidity 46    
Precipitation  
Precipitation T in 0.10 in 3.93 in (2004)
Month to date precipitation 3.98 2.36  
Year to date precipitation 7.49 6.53  
Snow  
Snow 0.00 in 0.10 in 5.10 in (1934)
Month to date snowfall T 1.6  
Since 1 July snowfall 6.6 17.7  
Snow Depth 0.00 in    
Sea Level Pressure  
Sea Level Pressure 30.06 in    
Wind  
Wind Speed 10 mph (SE)    
Max Wind Speed 17 mph    
Max Gust Speed 24 mph    
Visibility 10 miles    
Events      
T = Trace of Precipitation, MM = Missing Value Source: NWS Daily Summary

Daily Weather History Graph

Daily Weather History Graph

Search for Another Location

Airport or City:

Trip Planner

Search our weather history database for the weather conditions in past years. The results will help you decide how hot, cold, wet, or windy it might be!

Date:

Astronomy

Mar. 26, 2012 Rise Set
Actual Time 7:02 AM CDT 7:27 PM CDT
Civil Twilight 6:35 AM CDT 7:53 PM CDT
Nautical Twilight 6:04 AM CDT 8:25 PM CDT
Astronomical Twilight 5:32 AM CDT 8:57 PM CDT
Moon 8:54 AM CDT (3/26) 11:35 PM CDT (3/26)
Length of Visible Light 13h 18m
Length of Day
12h 25m
Waxing Crescent, 15% of the Moon is Illuminated
Mar 26
Waxing Crescent
Mar 30
First Quarter
Apr 6
Full
Apr 13
Last Quarter
Apr 21
New

Hourly Weather History & Observations

Time (CDT) Temp. Dew Point Humidity Pressure Visibility Wind Dir Wind Speed Gust Speed Precip Events Conditions
12:54 AM 63.0 °F 53.1 °F 70% 30.05 in 10.0 mi ESE 4.6 mph - N/A   Clear
1:54 AM 61.0 °F 53.1 °F 75% 30.06 in 10.0 mi SE 6.9 mph - N/A   Clear
2:54 AM 60.1 °F 53.1 °F 78% 30.06 in 10.0 mi SE 5.8 mph - N/A   Clear
3:54 AM 59.0 °F 52.0 °F 78% 30.07 in 10.0 mi SE 4.6 mph - N/A   Clear
4:54 AM 57.9 °F 52.0 °F 81% 30.08 in 10.0 mi SE 3.5 mph - N/A   Clear
5:54 AM 57.9 °F 52.0 °F 81% 30.09 in 10.0 mi SSE 3.5 mph - N/A   Clear
6:54 AM 55.9 °F 52.0 °F 87% 30.11 in 10.0 mi SE 4.6 mph - N/A   Clear
7:54 AM 55.9 °F 52.0 °F 87% 30.13 in 10.0 mi ESE 4.6 mph - N/A   Clear
8:54 AM 62.1 °F 55.9 °F 80% 30.11 in 10.0 mi SE 10.4 mph - N/A   Clear
9:54 AM 64.9 °F 55.9 °F 73% 30.14 in 10.0 mi SSE 3.5 mph - N/A   Scattered Clouds
10:54 AM 71.1 °F 55.0 °F 57% 30.13 in 10.0 mi South 9.2 mph - N/A   Mostly Cloudy
11:54 AM 73.0 °F 54.0 °F 51% 30.12 in 10.0 mi SE 12.7 mph - N/A   Clear
12:54 PM 73.0 °F 54.0 °F 51% 30.10 in 10.0 mi SSE 12.7 mph - N/A   Mostly Cloudy
1:54 PM 73.0 °F 57.0 °F 57% 30.08 in 10.0 mi ESE 11.5 mph - 0.00 in   Scattered Clouds
2:54 PM 75.0 °F 55.9 °F 51% 30.06 in 10.0 mi SE 10.4 mph - N/A   Clear
3:54 PM 75.9 °F 55.0 °F 48% 30.04 in 10.0 mi East 12.7 mph - N/A   Clear
4:54 PM 75.9 °F 55.0 °F 48% 30.02 in 10.0 mi SE 11.5 mph - N/A   Clear
5:54 PM 75.9 °F 54.0 °F 46% 30.01 in 10.0 mi ESE 11.5 mph - N/A   Clear
6:54 PM 72.0 °F 55.9 °F 57% 30.01 in 10.0 mi East 10.4 mph 18.4 mph N/A   Clear
7:54 PM 70.0 °F 55.9 °F 61% 30.00 in 10.0 mi ESE 11.5 mph - N/A   Clear
8:54 PM 68.0 °F 55.0 °F 63% 30.01 in 10.0 mi ESE 15.0 mph 20.7 mph N/A   Clear
9:54 PM 66.0 °F 55.0 °F 68% 30.03 in 10.0 mi ESE 16.1 mph 20.7 mph N/A   Clear
10:54 PM 64.0 °F 54.0 °F 70% 30.01 in 10.0 mi ESE 17.3 mph 21.9 mph N/A   Clear
11:54 PM 63.0 °F 54.0 °F 72% 30.01 in 10.0 mi SE 13.8 mph - N/A   Clear